Regional Weather Roundup
Issued by NWS San Diego, CA

Home | Current Version | Previous Version | Text Only | Print | Product List | Glossary On
Versions: 1 2 3 4 5 6 7 8 9 10 11 12 13 14 15 16 17 18 19 20 21 22 23 24 25 26 27 28 29 30 31 32 33 34 35 36 37 38 39 40 41 42 43 44 45 46 47 48 49
000
ASUS46 KSGX 080411
RWRSGX

SAN DIEGO HOURLY WEATHER ROUNDUP
NATIONAL WEATHER SERVICE SAN DIEGO CA
900 PM PDT TUE JUL 07 2015

NOTE: "FAIR" INDICATES FEW OR NO CLOUDS BELOW 12,000 FEET WITH NO
SIGNIFICANT WEATHER AND/OR OBSTRUCTIONS TO VISIBILITY.

CAZ042-043-060-061-PZZ750-775-080500-

GREATER SAN DIEGO AREA

CITY           SKY/WX    TMP DP  RH WIND       PRES   REMARKS
LINDBERGH FLD  CLOUDY    68  59  73 W5        29.93R
POINT LOMA       N/A     64  57  79 NW6         N/A
NATIONAL CITY    N/A     67  62  82 CALM      29.92S
CHULA VISTA      N/A     67  62  84 CALM      29.85R
IMPERIAL BEACH CLOUDY    67  59  75 W3        29.93R
BROWN FIELD    CLOUDY    64  59  83 W6        29.93R
MIRAMAR MCAS   CLOUDY    68  58  70 W3        29.92R
MONTGOMERY FLD CLOUDY    66  59  78 W8        29.92R

$$

NORTH SAN DIEGO COUNTY

CITY           SKY/WX    TMP DP  RH WIND       PRES   REMARKS
CAMP PENDLETON CLOUDY    67  60  78 S7        29.91R
OCEANSIDE AP   CLOUDY    67  60  78 S5        29.90R
OCEANSIDE HBR    N/A     66  63  89 SE1       29.93R
VISTA            N/A     65  60  84 CALM      29.89R
CARLSBAD       CLOUDY    65  59  81 SW5       29.91R
DEL MAR          N/A     65  61  88 CALM      29.93S
LA JOLLA SCRIP   N/A    N/A N/A N/A CALM      29.89R
FALLBROOK        N/A     65  64  95 S1        29.90R
ESCONDIDO        N/A     65  60  82 SW2       29.93R
SAN MARCOS       N/A     64  60  87 CALM      29.89R
POWAY            N/A     65  59  83 W3        29.93R

$$

EAST SAN DIEGO COUNTY

CITY           SKY/WX    TMP DP  RH WIND       PRES   REMARKS
RAMONA         PTCLDY    61  57  87 W9        29.93R
SANTEE LAKES     N/A     65  60  83 W3        29.91R
LA MESA          N/A     65  59  82 W6        29.67R
JAMUL            N/A     62  58  85 CALM      29.91R
DESCANSO N       N/A     61  56  82 CALM      29.74R
CAMPO            N/A     63  56  78 SW7       29.91R

$$

ORANGE COUNTY AND THE LOS ANGELES BASIN

CITY           SKY/WX    TMP DP  RH WIND       PRES   REMARKS
JOHN WAYNE AP  PTCLDY    65  60  84 S8        29.90R
LAKE FOREST FR   N/A     64  57  78 CALM      29.80R
SANTA ANA        N/A     69  61  76 CALM      29.84S
HUNTINGTON BCH   N/A     65  62  89 W6        29.91R
LOS ALAMITOS   CLEAR     65  62  87 SW6       29.89R
FULLERTON      CLEAR     70  60  70 VRB5      29.88R
LONG BEACH     CLEAR     70  59  68 NW10      29.89R
L.A. AP        PTCLDY    66  61  84 SW9       29.89R
L.A. DOWNTOWN  MOCLDY    67  60  78 CALM      29.88R

$$

THE INLAND EMPIRE

CITY           SKY/WX    TMP DP  RH WIND       PRES   REMARKS
CORONA         CLEAR     68  59  73 W10       29.88R
CHINO          CLEAR     67  60  78 W12       29.89R
ONTARIO        CLEAR     68  59  73 W12       29.89R
RIVERSIDE AP   CLEAR     69  59  70 W8        29.89R
MORENO VALLEY    N/A     71  63  75 NW6       29.85R
MARCH ARB      CLEAR     70  58  66 NW13      29.90R
HORSETHIEF CYN   N/A     71  57  61 W5        29.90R
PERRIS           N/A     72  60  65 SW5         N/A
MENIFEE          N/A     69  62  78 S7        29.94R
HEMET EAST       N/A     73  54  51 CALM      29.88R
FRENCH VALLEY  FAIR      64  59  82 S7        29.92R
TEMECULA         N/A     65  61  85 SW5       29.86R

$$

SAN BERNARDINO AND RIVERSIDE COUNTY MOUNTAINS

CITY           SKY/WX    TMP DP  RH WIND       PRES   REMARKS
BIG BEAR AP    FAIR      59  27  29 SW3       30.15S
PINE COVE        N/A     64  21  19 CALM      29.75S

$$

SOUTHERN DESERT INCLUDING THE COACHELLA VALLEY

CITY           SKY/WX    TMP DP  RH WIND       PRES   REMARKS
PALM SPRINGS   CLEAR     92  55  28 NW22G29   29.69R
THOUSAND PALMS   N/A     89  56  32 NW16      29.65R
PALM DESERT      N/A     94  55  26 CALM      30.13F
THERMAL        CLEAR     95  53  24 N20       29.62R
BLYTHE         CLEAR    102  51  18 SW8       29.65R HX  99
IMPERIAL AP    CLEAR     92  40  16 W16G24    29.64R
EL CENTRO NAS  PTCLDY    94  36  13 W23G32    29.67R
YUMA AZ        PTCLDY    95  49  20 S8        29.68R
MEXICALI       CLEAR     93  55  27 NW7       29.67

$$

UPPER DESERT

CITY           SKY/WX    TMP DP  RH WIND       PRES   REMARKS
VICTORVILLE AP CLEAR     77  27  15 S8        29.90R
HESPERIA         N/A     73  55  52 W9        29.84S
APPLE VALLEY     N/A     75  52  44 SW1G21    29.96R
PALMDALE       CLEAR     75  42  30 W15       29.90R
LANCASTER      CLEAR     75  48  38 SW12      29.88R
EDWARDS AFB    PTCLDY    79  37  22 SW13      29.84R
DAGGETT        CLEAR     88  33  14 W23       29.78R
29 PALMS N     CLEAR     90  34  13 SW18      29.85R
NEEDLES        CLEAR    103  43  13 SW10      29.67R HX  98

$$

REGIONAL REPORTS

CITY           SKY/WX    TMP DP  RH WIND       PRES   REMARKS
SANTA BARBARA  CLEAR     67  62  84 S7        29.84R
SANDBERG       CLEAR     69  47  45 NW9       30.03S
LAS VEGAS NV   MOCLDY    95  49  20 S8        29.72S
PHOENIX AZ     PTCLDY   103  44  13 NW6       29.71R HX  98
TIJUANA        CLOUDY    64  55  72 W7        29.95R
ENSENADA NW      N/A     65  32  29 W3        29.90S

$$

OFFSHORE ISLANDS

CITY           SKY/WX    TMP DP  RH WIND       PRES   REMARKS
CATALINA ARPT  FOG       60  59  96 W12       29.94R VSB 1/2
SAN NICOLAS IS PTCLDY   N/A N/A N/A W25G32    29.91S

$$

MARINE AND OFFSHORE BUOY REPORTS

STATION/POSITION SKY/WX   TEMP    WIND        PRES    SWELL
                          AIR SEA DIR/SP/G            HT/PER/DIR
                          (F)     (DEG/KT/KT) (MB)    (FT/S/D)
TANNER BANKS               64 63  280/ 12/ 14 1013.8R   3/180/13
S CLEMENTE BASIN           66 68  300/ 16/ 19 1012.8R   2/190/19
SAN NICOLAS IS.               63                N/A     3/190/13
SO. S. ROSA ISLA           63 63  290/ 17/ 21 1012.1S   3/13
W. S. BARBARA CH           61 61  310/ 16/ 17 1012.4R   3/200/13
M. S. BARBARA CH           65 63  270/ 21/ 25 1011.3R
S. MONICA BASIN            66 68  280/ 12/ 14 1011.5S   3/260/ 6
S PEDRO CHANNEL               64                N/A     2/250/20
DANA POINT                    68                N/A     2/200/20
OCEANSIDE OFFSHR              69                N/A     2/220/20
TORREY PINES OTR              69                N/A     2/220/18
LA JOLLA 1                 66 69  250/  3/  4 1012.7R
MISSION BAY BUOY              70                N/A     2/220/20
SAN DIEGO BAY                 71              1013.2R
POINT LOMA SOUTH              69                N/A     2/210/20

$$




USA.gov is the U.S. government's official web portal to all federal, state and local government web resources and services.